Regional Weather Roundup
Issued by NWS

Home | Current Version | Previous Version | Graphics & Text | Print | Product List | Glossary On
Versions: 1 2 3 4 5 6 7 8 9 10 11 12 13 14 15 16 17 18 19 20 21 22 23 24 25 26 27 28 29 30 31 32 33 34 35 36 37 38 39 40 41 42 43 44 45 46 47 48 49 50
000
ASUS43 KMPX 301110
RWRMN
WEATHER ROUNDUP FOR MINNESOTA
NATIONAL WEATHER SERVICE TWIN CITIES/CHANHASSEN MN
600 AM CDT SAT MAY 30 2015


NOTE: "FAIR" INDICATES FEW OR NO CLOUDS BELOW 12,000 FEET WITH NO
SIGNIFICANT WEATHER AND/OR OBSTRUCTIONS TO VISIBILITY. N/A MEANS
CURRENT SKY AND/OR WEATHER CONDITIONS ARE NOT AVAILABLE.

MNZ060>063-068>070-301200-
   Twin Cities Metro

CITY           SKY/WX    TMP DP  RH WIND       PRES   REMARKS
TWIN CITIES    PTCLDY    47  39  74 N13G22    30.16R
ST PAUL        PTCLDY    47  40  76 N10       30.16R
CRYSTAL        CLEAR     47  39  74 N9        30.16R
BLAINE         CLEAR     46  43  87 N10       30.17R
LAKEVILLE      CLOUDY    46  41  81 N10G18    30.15R
EDEN PRAIRIE   PTCLDY    47  39  74 N12       30.15R
SOUTH ST PAUL  PTCLDY    48  40  72 N12G17    30.15R
LAKE ELMO      FAIR      46  41  81 N12G17    30.16R
$$
MNZ001>005-007-008-013>017-022>024-027-028-301200-
   Northwest Minnesota

CITY           SKY/WX    TMP DP  RH WIND       PRES   REMARKS
BEMIDJI        PTCLDY    35  32  90 N7        30.29R WCI  29
HALLOCK        CLEAR     30  25  80 N6        30.40R WCI  24
ROSEAU         CLEAR     30  25  80 NW6       30.37R WCI  24
WARROAD        CLOUDY    32  27  80 NW5       30.36R WCI  27
THIEF RVR FALL CLEAR     32  27  80 N8        30.36R WCI  25
CROOKSTON      CLEAR     32  27  80 N7        30.38R WCI  26
FOSSTON        CLEAR     30  28  93 N10       30.33R WCI  21
DETROIT LAKES  CLEAR     36  32  87 N7        30.31R
MOORHEAD       CLEAR     34  28  80 N14       30.35R WCI  24
PARK RAPIDS    CLEAR     37  32  82 N13       30.27R
MAHNOMEN       FAIR      32  30  92 N10       30.32R WCI  24
$$
MNZ006-009>011-018-025>026-301200-
   North Central Minnesota

CITY           SKY/WX    TMP DP  RH WIND       PRES   REMARKS
BAUDETTE       CLOUDY    36  26  67 N13       30.33R
FLAG ISLAND    CLOUDY    36  27  69 N14       30.35R
INTL FALLS     CLOUDY    36  26  67 N13G20    30.31R
WASKISH        CLOUDY    36  30  80 N7        30.32R
BIG FORK       CLEAR     34  28  80 N6        30.28R WCI  29
LONGVILLE      CLEAR     39  36  87 N8        30.25R
GRAND RAPIDS   CLEAR     37  30  75 N9        30.25R
CRANE LAKE     CLOUDY    36  30  80 NW7G21    30.29R
ORR            CLOUDY    37  30  75 N3        30.24R
COOK           MOCLDY    37  32  81 N5        30.26R
WALKER         PTSUNNY   37  33  85 N6        30.28R
$$
MNZ012-019>021-037-301200-
   Northeast Minnesota

CITY           SKY/WX    TMP DP  RH WIND       PRES   REMARKS
DULUTH         PTCLDY    42  35  76 N12       30.18R
HIBBING        FAIR      37  33  85 N12       30.23R
EVELETH        CLEAR     36  34  93 N5        30.23R
DULUTH HARBOR  CLEAR     46  39  76 N20G28    30.19R
TWO HARBORS    CLEAR     45  37  76 N8G16     30.16R
SILVER BAY     CLEAR     45  36  70 NW9G16    30.15R
GRAND MARAIS     N/A     44  32  62 N16G36    30.14R
G MARAIS ARPRT CLEAR     36  28  75 NW13G23   30.16R
$$
MNZ029>031-032-039>041-046>048-054>057-064-301200-
   West Central Minnesota

CITY           SKY/WX    TMP DP  RH WIND       PRES   REMARKS
FERGUS FALLS   CLEAR     37  32  81 N9        30.31R
WHEATON        CLEAR     34  30  86 NW10      30.33R WCI  26
MORRIS         CLEAR     39  36  87 N9        30.26R
ALEXANDRIA     CLEAR     40  35  83 N9G18     30.26R
ELBOW LAKE     FAIR      38  36  92 N6        30.28R
WADENA         CLEAR     36  32  87 N12       30.26R
GLENWOOD       CLEAR     39  36  87 N13       30.25R
APPLETON       CLEAR     41  36  81 N12       30.26R
BENSON         CLEAR     43  37  81 NE10      30.25R
ORTONVILLE     CLEAR     37  32  81 N16       30.28R
MADISON        CLEAR     41  36  81 N14       30.26R
WILLMAR        FAIR      45  41  87 N12       30.23R
$$
MNZ033>034-036-042>043-049>051-058-059-301200-
   Central Minnesota

CITY           SKY/WX    TMP DP  RH WIND       PRES   REMARKS
ST CLOUD       CLEAR     43  37  79 N10       30.20R
SAUK CENTRE    FAIR      41  37  84 N9G16     30.24R
PAYNESVILLE    CLEAR     39  37  91 NW5       30.23R
AITKIN         CLEAR     39  34  81 NW6       30.22R
PINE RIVER     MOCLDY    43  36  75 N9        30.28R
BRAINERD       CLEAR     41  34  76 N14G20    30.24R
STAPLES        CLEAR     37  36  93 N10       30.26R
LONG PRAIRIE   FAIR      37  36  93 NW7       30.25R
LITTLE FALLS   CLEAR     41  34  75 CALM      30.23R
LITCHFIELD     CLEAR     46  39  76 N9        30.21R
BUFFALO        CLEAR     46  38  74 N9G17     30.19R
MAPLE LAKE     CLEAR     45  40  83 N10       30.20R
$$
MNZ037-044-045-052-053-301200-
   East Central Minnesota

CITY           SKY/WX    TMP DP  RH WIND       PRES   REMARKS
PRINCETON      CLEAR     45  37  76 N10G16    30.19R
MORA           CLEAR     41  34  75 N7        30.21R
CAMBRIDGE      CLEAR     46  36  66 N8        30.17R
RUSH CITY      CLEAR     43  37  80 N6        30.18R
MOOSE LAKE     CLEAR     41  34  75 N8        30.18R
HINCKLEY       FAIR      43  37  81 N12G17    30.19R
CLOQUET        CLEAR     39  36  87 N9        30.20R
MCGREGOR       CLEAR     41  36  81 N10G16    30.23R
$$
MNZ071>073-080-081-089-090-097-098-301200-
   Southwest Minnesota

CITY           SKY/WX    TMP DP  RH WIND       PRES   REMARKS
MONTEVIDEO     CLEAR     41  39  93 N10       30.25R
GRANITE FALLS  CLEAR     42  39  88 NW9       30.24R
CANBY          CLEAR     39  36  87 NW9       30.27R
MARSHALL       CLEAR     41  34  75 N13       30.23R
REDWOOD FALLS  CLEAR     45  41  86 N8        30.20R
OLIVIA         CLEAR     43  36  75 N10       30.20R
PIPESTONE      MOCLDY    43  37  81 N9        30.21R
WINDOM         PTCLDY    45  43  93 N15       30.18R
WORTHINGTON    MOCLDY    45  37  76 N16G23    30.18R
JACKSON        PTCLDY    45  43  93 N15       30.16R
TRACY          PTCLDY    43  41  93 N10       30.22R
SLAYTON        PTCLDY    42  41  95 N15       30.21R
$$
MNZ065>067-074>077-082>085-091>093-301200-
   South Central Minnesota

CITY           SKY/WX    TMP DP  RH WIND       PRES   REMARKS
MANKATO        CLOUDY    48  41  76 N17       30.15R
NEW ULM        PTCLDY    46  41  81 N8        30.17R
ST JAMES       PTCLDY    48  43  81 N14G21    30.17R
FAIRMONT       MOCLDY    48  39  71 N16       30.14R
GLENCOE        CLEAR     46  42  86 N9        30.17R
FARIBAULT      CLOUDY    50  43  76 N12       30.13R
OWATONNA       CLOUDY    50  43  76 N12G18    30.12R
WASECA         CLOUDY    50  43  76 N15       30.13R
ALBERT LEA     CLOUDY    52  46  82 N12G20    30.10R
$$
MNZ078>079-086>088-094>096-301200-
   Southeast Minnesota

CITY           SKY/WX    TMP DP  RH WIND       PRES   REMARKS
ROCHESTER      CLOUDY    50  47  89 N16G30    30.09R
RED WING       CLOUDY    52  45  76 N6        30.11R
STANTON        CLOUDY    51  43  74 N12G18    30.12R
DODGE CENTER   CLOUDY    50  46  87 N15       30.10R
WINONA         CLOUDY    54  50  87 N9G17     30.07R
AUSTIN         CLOUDY    50  46  87 N13G21    30.08R
PRESTON        CLOUDY    50  48  93 N15G24    30.06R
$$
ABBREVIATIONS USED IN REMARKS
   TC - TEMPERATURES IN CELSIUS
  WCI - WIND CHILL INDEX
   HX - HEAT INDEX
  VSB - VISIBILITY
$$


USA.gov is the U.S. government's official web portal to all federal, state and local government web resources and services.